[[{"header":{"parameterUnit":"m.s-1","parameterCategory":1,"la1":30.2991,"la2":30.254,"lo1":-89.0895,"lo2":-89.0444,"dy":0.0017,"dx":0.0017,"nx":28,"ny":28,"refTime":"2024-08-09T09:00:00:Z","depth":0,"parameterNumber":2,"parameterNumberName":"U-component_of_WINDS"},"data":[0,0,0,0,0,0,0,0,0,0,0,0,0,0,0,0,0,0,0,0,0,0,0,0,0,0,0,0,0,0,0,0,0,0,0,0,0,0,0,0,0,0,0,0,0,0,0,0,0,0,0,0,0,0,0,0,0,0,1.8072,1.8073,0,1.8224,1.8226,1.8228,1.8194,1.8192,1.8189,1.8186,1.8352,1.8359,1.8366,0,0,0,0,0,0,0,0,0,0,0,0,0,1.7763,1.7768,1.8071,1.8073,1.8075,1.8224,1.8226,1.8228,1.8195,1.8191,1.8188,1.8185,1.835,1.8358,1.8367,0,0,0,0,0,0,0,0,0,0,0,0,0,1.7905,1.777,1.8071,1.8076,1.8078,1.8224,1.8226,1.8229,1.8196,1.8191,1.8187,1.8183,1.8347,1.8357,1.8368,1.8521,0,0,1.8401,1.8405,0,0,0,0,0,0,0,0,1.7897,1.7916,1.8074,1.8076,1.8079,1.8186,1.8178,1.8327,1.8197,1.8151,1.8186,1.8181,1.8301,1.8315,1.8354,1.8528,1.8536,1.8402,1.8408,1.8413,1.8416,0,0,0,0,0,0,0,1.7887,1.7909,1.8132,1.8076,1.8079,1.8075,1.809,1.8206,1.8249,1.8155,1.8153,1.8171,1.8302,1.8343,1.8357,1.8538,1.8401,1.8411,1.8417,1.8422,1.8853,1.8857,0,0,0,0,0,0,1.7873,1.7901,1.8127,1.8137,1.7975,1.8084,1.8101,1.8156,1.8248,1.8257,1.8175,1.8169,1.8327,1.8345,1.8363,1.8552,1.8413,1.8423,1.8429,1.8848,1.8854,1.8859,0,0,0,0,0,0,1.7867,1.7894,1.8121,1.8019,1.8047,1.8094,1.8156,1.8161,1.8203,1.8262,1.8271,1.8209,1.8325,1.8348,1.8483,1.8557,1.8427,1.8437,1.8842,1.8849,1.8856,1.8928,0,0,0,0,0,0,1.7858,1.7891,1.7947,1.802,1.8053,1.8234,1.816,1.8167,1.822,1.8214,1.8296,1.8306,1.8323,1.8467,1.8493,1.8569,1.8445,1.8835,1.8845,1.8854,1.892,1.8937,1.8953,0,0,0,0,0,1.7847,1.7962,1.795,1.7977,1.8122,1.8239,1.8258,1.8272,1.8226,1.8285,1.8324,1.8303,1.8544,1.8481,1.851,1.8591,1.8831,1.8842,1.8853,1.8912,1.8934,1.8952,0,0,0,0,0,0,1.7898,1.7971,1.7959,1.8099,1.8163,1.8232,1.8306,1.8294,1.8374,1.8365,1.8383,1.8402,1.854,1.8579,1.8507,1.8747,1.8682,1.8699,1.8716,1.8737,1.8754,1.8743,1.8454,0,0,0,0,0,1.7925,1.801,1.8071,1.819,1.8222,1.8259,1.831,1.8316,1.8384,1.8411,1.8459,1.8529,1.8621,1.8681,1.8768,1.8925,1.8945,1.8995,1.9012,1.9025,1.9041,1.9132,1.9157,1.8896,1.8896,1.8896,0,0,1.7984,1.8034,1.8087,1.8201,1.8251,1.8343,1.8282,1.838,1.845,1.8427,1.8557,1.8596,1.8675,1.8822,1.889,1.8859,1.9118,1.904,1.905,1.9059,1.9147,1.9171,1.9193,1.8904,1.8903,1.8902,0,0,1.8137,1.8181,1.8287,1.8339,1.8414,1.8439,1.8464,1.8537,1.8561,1.8691,1.8677,1.8763,1.8919,1.8978,1.9028,1.9208,1.9195,1.9236,1.9324,1.9412,1.9433,1.9451,1.952,1.9544,1.9252,1.9252,1.9252,0,1.82,1.8334,1.8344,1.8445,1.8499,1.848,1.8591,1.8641,1.8743,1.8782,1.8745,1.8944,1.8996,1.9159,1.9204,1.9243,1.9278,1.9228,1.9428,1.9447,1.9465,1.953,1.9556,1.9257,1.9256,1.9256,1.9255,0,1.8411,1.8505,1.8582,1.8679,1.8741,1.8847,1.8877,1.894,1.8941,1.8971,1.9108,1.9169,1.9271,1.931,1.9313,1.9476,1.9455,1.9423,1.9359,1.9494,1.9556,1.9581,1.9264,1.9262,1.926,1.9259,0,0,1.86,1.8702,1.8731,1.8777,1.8861,1.8936,1.9043,1.9141,1.9196,1.9268,1.9362,1.9497,1.9469,1.9526,1.9536,1.9613,1.9758,1.9573,1.9576,1.9609,1.9948,1.9973,2.0002,1.9749,1.9754,1.9758,1.9943,0,1.8763,1.8948,1.8963,1.9132,1.9222,1.9208,1.9302,1.9367,1.9399,1.9483,1.952,1.9616,1.957,1.9606,1.9681,1.9724,1.9827,1.9711,1.9842,1.9846,1.9824,2.0034,2.006,2.0231,1.9967,1.9971,1.9974,0,1.8978,1.9055,1.9233,1.9308,1.9347,1.9431,1.9524,1.9603,1.9679,1.9697,1.9763,1.9763,1.9879,1.9809,1.9972,1.9892,1.9947,1.9977,1.9984,1.9999,1.992,2.0058,2.0285,2.0313,2.0011,2.0008,2.0006,0,1.9103,1.9251,1.9378,1.9417,1.9507,1.9568,1.9609,1.9679,1.9739,1.9821,1.9861,1.9957,2.0011,2.0087,2.0116,2.0061,2.028,2.021,2.0302,2.0302,2.035,2.0347,2.0593,2.0381,2.038,2.038,2.0379,0,1.9286,1.9396,1.9436,1.9514,1.9639,1.9657,1.9782,1.982,1.9884,1.9973,1.9967,2.0052,2.0083,2.0174,2.0198,2.0332,2.0356,2.0377,2.0383,2.038,2.0377,2.0417,2.0408,2.0387,2.0385,2.0384,2.0382,0,1.9446,1.9477,1.9615,1.9689,1.9711,1.98,1.9866,1.9945,1.9976,2.0089,2.0117,2.0168,2.0276,2.0311,2.0442,2.0458,2.0616,2.061,2.059,2.0592,2.0683,2.0676,2.0966,2.1007,2.0764,2.0766,2.0768,0,1.9562,1.9647,1.9731,1.9789,1.9832,1.9925,1.9986,2.0008,2.0072,2.0167,2.0235,2.0341,2.0428,2.0602,2.0653,2.0755,2.0753,2.0848,2.0768,2.0764,2.0759,2.0755,2.0766,2.0863,2.0866,2.0868,2.0869,0,1.9766,1.9778,1.9863,1.9956,2.0028,2.0103,2.0175,2.0224,2.0258,2.0331,2.044,2.0507,2.0641,2.0749,2.0853,2.09,2.0894,2.0894,2.0921,2.092,2.0907,2.092,2.0634,2.0888,2.0886,2.0884,2.0884,2.0883,1.991,1.9987,2.0059,2.0156,2.0212,2.0281,2.0359,2.0401,2.0491,2.06,2.0609,2.0728,2.0807,2.0946,2.0998,2.1095,2.1069,2.1107,2.1118,2.1128,2.1137,2.0889,2.1114,2.1114,2.1113,2.1113,2.1112,0,2.0117,2.0163,2.0252,2.0353,2.0432,2.0414,2.0495,2.0563,2.0667,2.0739,2.0824,2.0953,2.1058,2.1119,2.1225,2.1292,2.1292,2.132,2.1317,2.1329,2.1152,2.112,2.1318,2.1318,2.1318,2.1318,2.1318,2.1318,2.0234,2.0364,2.0385,2.0545,2.0591,2.0706,2.0754,2.082,2.0878,2.102,2.1107,2.1145,2.1215,2.1327,2.1425,2.144,2.1482,2.1513,2.1527,2.1361,2.134,2.132,2.129,2.1521,2.1521,2.1695,2.1697,2.1698]},{"header":{"parameterUnit":"m.s-1","parameterCategory":1,"la1":30.2991,"la2":30.254,"lo1":-89.0895,"lo2":-89.0444,"dy":0.0017,"dx":0.0017,"nx":28,"ny":28,"refTime":"2024-08-09T09:00:00:Z","depth":0,"parameterNumber":3,"parameterNumberName":"V-component_of_WINDS"},"data":[0,0,0,0,0,0,0,0,0,0,0,0,0,0,0,0,0,0,0,0,0,0,0,0,0,0,0,0,0,0,0,0,0,0,0,0,0,0,0,0,0,0,0,0,0,0,0,0,0,0,0,0,0,0,0,0,0,0,-0.4372,-0.4368,0,-0.4007,-0.4003,-0.3999,-0.3951,-0.3954,-0.3958,-0.3961,-0.3576,-0.3563,-0.355,0,0,0,0,0,0,0,0,0,0,0,0,0,-0.502,-0.5008,-0.4373,-0.4368,-0.4364,-0.4008,-0.4002,-0.3997,-0.395,-0.3955,-0.3959,-0.3963,-0.3581,-0.3565,-0.3548,0,0,0,0,0,0,0,0,0,0,0,0,0,-0.4705,-0.5004,-0.4373,-0.4297,-0.4287,-0.4009,-0.4002,-0.3996,-0.3949,-0.3955,-0.396,-0.3965,-0.3586,-0.3566,-0.3546,-0.3315,0,0,-0.3484,-0.3475,0,0,0,0,0,0,0,0,-0.4722,-0.4681,-0.4313,-0.4302,-0.429,-0.403,-0.4089,-0.3767,-0.3948,-0.4077,-0.3961,-0.3968,-0.3722,-0.3691,-0.361,-0.3297,-0.328,-0.3482,-0.347,-0.3461,-0.3456,0,0,0,0,0,0,0,-0.4744,-0.4696,-0.4228,-0.4308,-0.4294,-0.4278,-0.4239,-0.4028,-0.3874,-0.4066,-0.4062,-0.402,-0.3717,-0.363,-0.3601,-0.3275,-0.3483,-0.3465,-0.3452,-0.3444,-0.2751,-0.2745,0,0,0,0,0,0,-0.4782,-0.4715,-0.4239,-0.4217,-0.4524,-0.4262,-0.4219,-0.4108,-0.3876,-0.3846,-0.4016,-0.4019,-0.3662,-0.3625,-0.3587,-0.3299,-0.3461,-0.3442,-0.3431,-0.2757,-0.2749,-0.2743,0,0,0,0,0,0,-0.4796,-0.474,-0.4254,-0.4464,-0.4401,-0.4245,-0.4121,-0.4098,-0.4011,-0.3838,-0.381,-0.3956,-0.3665,-0.3616,-0.3383,-0.3285,-0.3433,-0.3415,-0.2764,-0.2755,-0.2746,-0.2723,0,0,0,0,0,0,-0.4815,-0.4745,-0.4658,-0.4463,-0.4391,-0.4059,-0.4116,-0.4087,-0.3978,-0.3979,-0.3775,-0.3746,-0.3665,-0.3414,-0.3363,-0.326,-0.3399,-0.2772,-0.276,-0.2749,-0.2731,-0.2714,-0.2699,0,0,0,0,0,-0.4838,-0.4664,-0.4654,-0.4597,-0.4279,-0.4053,-0.4011,-0.3925,-0.397,-0.3879,-0.3768,-0.3752,-0.3306,-0.3391,-0.3333,-0.3222,-0.2778,-0.2763,-0.275,-0.2739,-0.2717,-0.2699,0,0,0,0,0,0,-0.4848,-0.4637,-0.4623,-0.4382,-0.4237,-0.4046,-0.3929,-0.3905,-0.3741,-0.3748,-0.3645,-0.3599,-0.3371,-0.3273,-0.3372,-0.2985,-0.3045,-0.3019,-0.3057,-0.3035,-0.3019,-0.3045,-0.3382,0,0,0,0,0,-0.4823,-0.4661,-0.4484,-0.4288,-0.4216,-0.4086,-0.3984,-0.3931,-0.3774,-0.3711,-0.3583,-0.3428,-0.3253,-0.3139,-0.2968,-0.2719,-0.2672,-0.2614,-0.2598,-0.2585,-0.2562,-0.2421,-0.2392,-0.2696,-0.2697,-0.2697,0,0,-0.4767,-0.4633,-0.4536,-0.4287,-0.4168,-0.3998,-0.4034,-0.3853,-0.3725,-0.3682,-0.3455,-0.3356,-0.3176,-0.2934,-0.2821,-0.2846,-0.2469,-0.2567,-0.2559,-0.2542,-0.2403,-0.2375,-0.2349,-0.2687,-0.2689,-0.269,0,0,-0.458,-0.4464,-0.4286,-0.4167,-0.3988,-0.3902,-0.386,-0.3672,-0.3606,-0.3377,-0.3341,-0.3186,-0.2887,-0.276,-0.2656,-0.2422,-0.24,-0.237,-0.2282,-0.2145,-0.2121,-0.2099,-0.2012,-0.1983,-0.2348,-0.2348,-0.2348,0,-0.4533,-0.428,-0.4197,-0.4018,-0.3908,-0.3866,-0.3683,-0.3571,-0.3343,-0.3266,-0.3299,-0.2922,-0.2799,-0.2525,-0.2468,-0.2387,-0.2332,-0.239,-0.2132,-0.2109,-0.2087,-0.2003,-0.1971,-0.2345,-0.2346,-0.2346,-0.2346,0,-0.4229,-0.4054,-0.3932,-0.3717,-0.3594,-0.3414,-0.3301,-0.3185,-0.3143,-0.3053,-0.282,-0.2671,-0.2468,-0.24,-0.2356,-0.2119,-0.214,-0.2154,-0.2211,-0.2057,-0.1976,-0.1943,-0.2341,-0.2342,-0.2343,-0.2344,0,0,-0.4034,-0.3778,-0.3734,-0.3635,-0.3435,-0.3296,-0.3113,-0.2919,-0.282,-0.2665,-0.2507,-0.2255,-0.2267,-0.2149,-0.2091,-0.1971,-0.1792,-0.1999,-0.1993,-0.1963,-0.1518,-0.1507,-0.1471,-0.1779,-0.1772,-0.1767,-0.1532,0,-0.3821,-0.3498,-0.3418,-0.314,-0.2975,-0.2934,-0.2774,-0.2632,-0.2543,-0.2388,-0.2289,-0.2112,-0.2142,-0.2071,-0.1951,-0.184,-0.1701,-0.1856,-0.1626,-0.1618,-0.1668,-0.1429,-0.1416,-0.1202,-0.15,-0.1495,-0.1491,0,-0.3528,-0.337,-0.3077,-0.2897,-0.2825,-0.2683,-0.2498,-0.2352,-0.2189,-0.2132,-0.2003,-0.1956,-0.1761,-0.1832,-0.156,-0.1667,-0.1569,-0.15,-0.1489,-0.1461,-0.1543,-0.1391,-0.1131,-0.1098,-0.1441,-0.1445,-0.1449,0,-0.3411,-0.3125,-0.2912,-0.2829,-0.2615,-0.2516,-0.2421,-0.2264,-0.2152,-0.199,-0.1915,-0.1731,-0.1629,-0.1486,-0.139,-0.1452,-0.1125,-0.1188,-0.1069,-0.1071,-0.0998,-0.1003,-0.0715,-0.0942,-0.0942,-0.0943,-0.0944,0,-0.3179,-0.3,-0.2856,-0.2725,-0.2522,-0.2432,-0.2233,-0.2137,-0.1998,-0.1845,-0.1797,-0.1654,-0.1538,-0.1377,-0.1301,-0.1085,-0.104,-0.0986,-0.0967,-0.0988,-0.0994,-0.0919,-0.093,-0.0934,-0.0936,-0.0938,-0.0939,0,-0.3012,-0.291,-0.2674,-0.2492,-0.2442,-0.23,-0.2142,-0.2011,-0.1924,-0.173,-0.1679,-0.1538,-0.1347,-0.1239,-0.0997,-0.0946,-0.0705,-0.0695,-0.0761,-0.0751,-0.0637,-0.0647,-0.0287,-0.0233,-0.0499,-0.0497,-0.0495,0,-0.2869,-0.273,-0.2535,-0.243,-0.2335,-0.2167,-0.2053,-0.1959,-0.1842,-0.1647,-0.1538,-0.1345,-0.1185,-0.0882,-0.0756,-0.0571,-0.0553,-0.044,-0.0525,-0.055,-0.0547,-0.0555,-0.0539,-0.0424,-0.0421,-0.0419,-0.0418,0,-0.2624,-0.258,-0.242,-0.224,-0.2107,-0.1961,-0.1815,-0.1732,-0.1613,-0.1483,-0.1289,-0.1165,-0.0921,-0.0728,-0.0533,-0.0432,-0.0403,-0.0393,-0.0355,-0.0372,-0.0415,-0.0387,-0.0716,-0.04,-0.0402,-0.0403,-0.0404,-0.0405,-0.2461,-0.2336,-0.2178,-0.2,-0.1882,-0.1748,-0.1615,-0.1512,-0.1349,-0.1144,-0.1099,-0.0893,-0.0732,-0.0468,-0.0363,-0.0199,-0.0218,-0.0164,-0.0149,-0.0136,-0.0131,-0.0445,-0.0163,-0.0163,-0.0164,-0.0164,-0.0164,0,-0.221,-0.2108,-0.1946,-0.1745,-0.1605,-0.1596,-0.1434,-0.1316,-0.1137,-0.0991,-0.0836,-0.0612,-0.0425,-0.0286,-0.0095,0.001,0.0028,0.0058,0.0053,0.0077,-0.0125,-0.0176,0.004,0.004,0.004,0.0039,0.0039,0.0039,-0.2063,-0.185,-0.1788,-0.1514,-0.1412,-0.1213,-0.1121,-0.0995,-0.0879,-0.0632,-0.0478,-0.039,-0.0245,-0.0044,0.0129,0.0165,0.0235,0.0263,0.0302,0.0112,0.009,0.007,0.0023,0.0277,0.0277,0.0491,0.0493,0.0495]}]]